• In Czech Republic
  • List of Countries
  • For 7 days
  • Water Temperature
  • Satellite Maps
  • Weather Map
  • Weather Widgets
  • user-avatar
    Login

    Hourly Weather Al-Budajji

    Today, 25 February, Sunday

    Time Temperature Precipitation Wind Pressure Humidity
    00:00 +24°C° 0 mm 7 mps 760 mmHg 72%
    01:00 +24°C° 0 mm 7 mps 760 mmHg 73%
    02:00 +23°C° 0.1 mm 7 mps 761 mmHg 74%
    03:00 +23°C° 0.1 mm 8 mps 761 mmHg 76%
    04:00 +22°C° 0 mm 8 mps 761 mmHg 78%
    05:00 +22°C° 3.3 mm 8 mps 762 mmHg 79%
    06:00 +21°C° 3.3 mm 9 mps 762 mmHg 80%
    07:00 +21°C° 3.3 mm 9 mps 763 mmHg 81%
    08:00 +21°C° 1.9 mm 8 mps 763 mmHg 80%
    09:00 +21°C° 1.9 mm 6 mps 763 mmHg 80%
    10:00 +21°C° 0 mm 6 mps 763 mmHg 82%
    11:00 +21°C° 0.1 mm 5 mps 763 mmHg 81%
    12:00 +21°C° 0.1 mm 5 mps 763 mmHg 80%
    13:00 +21°C° 0.1 mm 5 mps 762 mmHg 79%
    14:00 +21°C° 0 mm 5 mps 762 mmHg 78%
    15:00 +22°C° 0 mm 5 mps 762 mmHg 77%
    16:00 +22°C° 0 mm 4 mps 762 mmHg 77%
    17:00 +22°C° 0.2 mm 4 mps 762 mmHg 77%
    18:00 +22°C° 0.2 mm 3 mps 763 mmHg 77%
    19:00 +23°C° 0.2 mm 2 mps 763 mmHg 77%
    20:00 +23°C° 0.1 mm 2 mps 763 mmHg 77%
    21:00 +23°C° 0.1 mm 2 mps 763 mmHg 77%
    22:00 +23°C° 0.1 mm 2 mps 764 mmHg 77%
    23:00 +23°C° 0 mm 2 mps 764 mmHg 77%

    Tomorrow, 26 February, Monday

    Time Temperature Precipitation Wind Pressure Humidity
    00:00 +23°C° 0 mm 2 mps 764 mmHg 76%
    01:00 +23°C° 0 mm 1 mps 764 mmHg 75%
    02:00 +23°C° 0 mm 2 mps 764 mmHg 75%
    03:00 +23°C° 0 mm 2 mps 764 mmHg 75%
    04:00 +22°C° 0 mm 3 mps 764 mmHg 75%
    05:00 +22°C° 0 mm 3 mps 764 mmHg 74%
    06:00 +22°C° 0 mm 4 mps 764 mmHg 74%
    07:00 +22°C° 0 mm 4 mps 764 mmHg 74%
    08:00 +22°C° 0 mm 4 mps 765 mmHg 72%
    09:00 +22°C° 0 mm 3 mps 765 mmHg 71%
    10:00 +22°C° 0 mm 3 mps 765 mmHg 70%
    11:00 +22°C° 0 mm 3 mps 765 mmHg 68%
    12:00 +23°C° 0 mm 2 mps 764 mmHg 67%
    13:00 +23°C° 0 mm 2 mps 764 mmHg 65%
    14:00 +24°C° 0 mm 2 mps 764 mmHg 64%
    15:00 +24°C° 0 mm 2 mps 763 mmHg 63%
    16:00 +24°C° 0 mm 1 mps 763 mmHg 62%
    17:00 +24°C° 0 mm 1 mps 763 mmHg 61%
    18:00 +24°C° 0 mm 1 mps 763 mmHg 61%
    19:00 +24°C° 0 mm 1 mps 763 mmHg 60%
    20:00 +24°C° 0 mm 1 mps 763 mmHg 60%
    21:00 +24°C° 0 mm 1 mps 763 mmHg 60%
    22:00 +24°C° 0 mm 1 mps 764 mmHg 60%
    23:00 +24°C° 0 mm 1 mps 763 mmHg 60%

    Day after tomorrow, 27 February, Tuesday

    Time Temperature Precipitation Wind Pressure Humidity
    00:00 +24°C° 0 mm 1 mps 763 mmHg 60%
    01:00 +24°C° 0 mm 2 mps 763 mmHg 61%
    02:00 +24°C° 0 mm 2 mps 763 mmHg 61%
    03:00 +24°C° 0 mm 2 mps 762 mmHg 61%
    04:00 +24°C° 0 mm 3 mps 762 mmHg 61%
    05:00 +24°C° 0 mm 3 mps 763 mmHg 61%
    06:00 +23°C° 0 mm 4 mps 763 mmHg 61%
    07:00 +23°C° 0 mm 4 mps 763 mmHg 62%
    08:00 +23°C° 0 mm 4 mps 763 mmHg 61%
    09:00 +24°C° 0 mm 3 mps 764 mmHg 60%
    10:00 +24°C° 0 mm 3 mps 764 mmHg 59%
    11:00 +24°C° 0 mm 3 mps 763 mmHg 60%
    12:00 +24°C° 0 mm 3 mps 763 mmHg 60%
    13:00 +25°C° 0 mm 3 mps 763 mmHg 61%
    14:00 +25°C° 0 mm 3 mps 762 mmHg 62%
    15:00 +25°C° 0 mm 3 mps 762 mmHg 63%
    16:00 +25°C° 0 mm 4 mps 761 mmHg 64%
    17:00 +25°C° 0 mm 3 mps 761 mmHg 66%
    18:00 +25°C° 0 mm 3 mps 761 mmHg 67%
    19:00 +25°C° 0 mm 2 mps 761 mmHg 69%
    20:00 +25°C° 0 mm 2 mps 761 mmHg 69%
    21:00 +25°C° 0 mm 1 mps 762 mmHg 70%
    22:00 +25°C° 0 mm 1 mps 762 mmHg 70%
    23:00 +25°C° 0.1 mm 2 mps 762 mmHg 68%

    28 February, Wednesday

    Time Temperature Precipitation Wind Pressure Humidity
    00:00 +25°C° 0.1 mm 2 mps 761 mmHg 66%
    01:00 +25°C° 0.1 mm 3 mps 761 mmHg 63%
    02:00 +25°C° 0.2 mm 3 mps 761 mmHg 65%
    03:00 +25°C° 0.2 mm 4 mps 760 mmHg 66%
    04:00 +25°C° 0.2 mm 4 mps 760 mmHg 67%
    05:00 +25°C° 0.4 mm 4 mps 760 mmHg 68%
    06:00 +25°C° 0.4 mm 4 mps 761 mmHg 69%
    07:00 +25°C° 0.4 mm 4 mps 761 mmHg 69%
    08:00 +25°C° 0.1 mm 4 mps 761 mmHg 70%
    09:00 +25°C° 0.1 mm 4 mps 762 mmHg 70%
    10:00 +25°C° 0.1 mm 5 mps 762 mmHg 71%
    11:00 +25°C° 0 mm 4 mps 762 mmHg 72%
    12:00 +25°C° 0 mm 4 mps 761 mmHg 74%
    13:00 +25°C° 0 mm 4 mps 761 mmHg 76%
    14:00 +25°C° 0 mm 4 mps 761 mmHg 77%
    15:00 +26°C° 0 mm 4 mps 760 mmHg 77%
    16:00 +26°C° 0 mm 4 mps 759 mmHg 78%
    17:00 +26°C° 0 mm 4 mps 759 mmHg 78%
    18:00 +25°C° 0 mm 4 mps 759 mmHg 78%
    19:00 +25°C° 0 mm 4 mps 759 mmHg 78%
    20:00 +25°C° 0.1 mm 4 mps 760 mmHg 77%
    21:00 +25°C° 0.1 mm 5 mps 760 mmHg 76%
    22:00 +25°C° 0.1 mm 5 mps 760 mmHg 75%
    23:00 +25°C° 0.4 mm 5 mps 760 mmHg 74%

    1 March, Thursday

    Time Temperature Precipitation Wind Pressure Humidity
    00:00 +23°C° 0.4 mm 5 mps 760 mmHg 73%
    01:00 +23°C° 0.4 mm 5 mps 760 mmHg 72%
    02:00 +23°C° 0.3 mm 5 mps 760 mmHg 72%
    03:00 +23°C° 0.3 mm 4 mps 760 mmHg 72%
    04:00 +23°C° 0.3 mm 4 mps 760 mmHg 72%
    05:00 +23°C° 0.1 mm 4 mps 760 mmHg 72%
    06:00 +23°C° 0.1 mm 4 mps 761 mmHg 72%
    07:00 +23°C° 0.1 mm 5 mps 761 mmHg 72%
    08:00 +23°C° 0 mm 4 mps 761 mmHg 72%
    09:00 +23°C° 0 mm 4 mps 762 mmHg 72%
    10:00 +24°C° 0 mm 3 mps 762 mmHg 72%
    11:00 +24°C° 0 mm 3 mps 762 mmHg 72%
    12:00 +24°C° 0 mm 3 mps 762 mmHg 72%
    13:00 +24°C° 0 mm 3 mps 762 mmHg 71%
    14:00 +24°C° 0 mm 3 mps 761 mmHg 72%
    15:00 +23°C° 0 mm 4 mps 761 mmHg 73%
    16:00 +23°C° 0 mm 4 mps 760 mmHg 73%
    17:00 +23°C° 0 mm 4 mps 761 mmHg 74%
    18:00 +23°C° 0 mm 5 mps 761 mmHg 76%
    19:00 +23°C° 0 mm 5 mps 761 mmHg 77%
    20:00 +23°C° 0 mm 5 mps 762 mmHg 76%
    21:00 +23°C° 0 mm 5 mps 762 mmHg 76%
    22:00 +23°C° 0 mm 5 mps 762 mmHg 75%
    23:00 +23°C° 0 mm 6 mps 762 mmHg 74%

    2 March, Friday

    Time Temperature Precipitation Wind Pressure Humidity
    00:00 +23°C° 0 mm 6 mps 762 mmHg 74%
    01:00 +23°C° 0 mm 7 mps 762 mmHg 73%
    02:00 +23°C° 0 mm 7 mps 762 mmHg 72%
    03:00 +23°C° 0 mm 7 mps 762 mmHg 70%
    04:00 +23°C° 0 mm 7 mps 762 mmHg 69%
    05:00 +23°C° 0 mm 7 mps 762 mmHg 67%
    06:00 +23°C° 0 mm 7 mps 762 mmHg 66%
    07:00 +23°C° 0 mm 7 mps 763 mmHg 64%
    08:00 +23°C° 0 mm 7 mps 763 mmHg 65%
    09:00 +23°C° 0 mm 6 mps 764 mmHg 65%
    10:00 +23°C° 0 mm 6 mps 764 mmHg 65%
    11:00 +24°C° 0 mm 6 mps 764 mmHg 64%
    12:00 +24°C° 0 mm 6 mps 763 mmHg 63%
    13:00 +24°C° 0 mm 6 mps 763 mmHg 62%
    14:00 +24°C° 0 mm 6 mps 763 mmHg 62%
    15:00 +24°C° 0 mm 7 mps 763 mmHg 61%
    16:00 +24°C° 0 mm 7 mps 762 mmHg 61%
    17:00 +24°C° 0 mm 7 mps 763 mmHg 61%
    18:00 +24°C° 0 mm 7 mps 763 mmHg 61%
    19:00 +24°C° 0 mm 8 mps 763 mmHg 61%
    20:00 +24°C° 0 mm 8 mps 763 mmHg 61%
    21:00 +23°C° 0 mm 8 mps 763 mmHg 61%
    22:00 +23°C° 0 mm 8 mps 764 mmHg 61%
    23:00 +23°C° 0 mm 8 mps 763 mmHg 61%
    Show more